Location: Poigny-la-Forêt
(48.6876°N, 1.7701°E)
Time: 01:52:50
(UTC+02:00)

ISS - Pass Details

Date: 23 May 2019
Orbit: 407 x 418 km, 51.6° (Epoch: 27 June)

Event Time Altitude Azimuth Distance (km) Brightness Sun altitude
Rises 01:45:40 0° 290° (WNW) 2,366 0.3 -20.8°
Reaches altitude 10° 01:47:46 10° 291° (WNW) 1,503 -0.7 -20.8°
Enters shadow 01:50:53 72° 323° (NW) 446 -3.6 -20.8°
